AUA807 EDJA-LIRN

Flight info

Callsign AUA807
Flight time N/A
Altitude 39
Route KPT4B KPT Z999 BEMKI L607 ELMEM N606 GIRIS DCT TISAX DCT NAXAV DCT GIKEB DCT LANLI DCT UTENO DCT OTRET DCT SUXUB DCT ERIKA ERIKA1A
Aircraft A20N/M-SDE2E3FGHIJ1RWXY/LB1

Departure

Time 2026-04-26 20:34
Airport Memmingen Allgau Airport (EDJA)

Arrival

Time N/A
Airport Naples International Airport (LIRN)
Time Latitude Longitude Altitude Speed Heading
2026-04-26 20:17 47.98737 10.22705 2081 ft 0 kts 48°
2026-04-26 20:29 47.98739 10.22710 2081 ft 6 kts 56°
2026-04-26 20:30 47.98736 10.22733 2081 ft 0 kts 160°
2026-04-26 20:30 47.98725 10.22733 2079 ft 5 kts 185°
2026-04-26 20:30 47.98620 10.22718 2083 ft 15 kts 181°
2026-04-26 20:30 47.98586 10.22718 2084 ft 0 kts 176°
2026-04-26 20:32 47.98532 10.22707 2085 ft 11 kts 198°
2026-04-26 20:32 47.98480 10.22644 2087 ft 8 kts 229°
2026-04-26 20:32 47.98452 10.22586 2088 ft 6 kts 234°
2026-04-26 20:32 47.98431 10.22556 2089 ft 4 kts 210°
2026-04-26 20:33 47.98387 10.22559 2091 ft 7 kts 160°
2026-04-26 20:33 47.98361 10.22604 2091 ft 5 kts 99°
2026-04-26 20:33 47.98390 10.22709 2089 ft 37 kts 60°
2026-04-26 20:33 47.98669 10.23414 2083 ft 121 kts 59°
2026-04-26 20:34 47.99223 10.24819 2165 ft 182 kts 60°
2026-04-26 20:34 47.99900 10.26591 2542 ft 209 kts 60°
2026-04-26 20:34 48.00641 10.28575 3260 ft 216 kts 61°
2026-04-26 20:34 48.01386 10.30575 4084 ft 228 kts 62°
2026-04-26 20:35 48.02184 10.32724 4662 ft 248 kts 62°
2026-04-26 20:35 48.03050 10.35066 5352 ft 264 kts 62°
2026-04-26 20:35 48.03933 10.37472 6186 ft 272 kts 63°
2026-04-26 20:35 48.04593 10.40199 6769 ft 277 kts 79°
2026-04-26 20:36 48.04598 10.43070 6992 ft 279 kts 103°
2026-04-26 20:36 48.03742 10.45669 7101 ft 283 kts 130°
2026-04-26 20:36 48.02124 10.47272 7491 ft 282 kts 166°
2026-04-26 20:36 48.00194 10.47187 8420 ft 282 kts 201°
2026-04-26 20:37 47.98601 10.45578 9501 ft 279 kts 228°
2026-04-26 20:37 47.97362 10.43328 10463 ft 285 kts 235°
2026-04-26 20:37 47.95888 10.41188 10898 ft 312 kts 211°
2026-04-26 20:37 47.93758 10.40226 11497 ft 330 kts 189°
2026-04-26 20:38 47.91451 10.39836 12346 ft 337 kts 188°
2026-04-26 20:38 47.89110 10.39375 13276 ft 342 kts 191°
2026-04-26 20:38 47.86750 10.38787 14197 ft 346 kts 192°
2026-04-26 20:38 47.84363 10.38105 15041 ft 351 kts 194°
2026-04-26 20:39 47.81961 10.37367 15864 ft 356 kts 194°
2026-04-26 20:39 47.80346 10.36854 16413 ft 359 kts 194°
2026-04-26 20:39 47.77048 10.35783 17541 ft 366 kts 195°
2026-04-26 20:39 47.74538 10.34978 18337 ft 371 kts 194°
2026-04-26 20:40 47.71988 10.34275 19079 ft 375 kts 193°
2026-04-26 20:40 47.69393 10.33641 19774 ft 380 kts 192°
2026-04-26 20:40 47.66771 10.33037 20457 ft 384 kts 192°
2026-04-26 20:40 47.64106 10.32435 21172 ft 389 kts 192°
2026-04-26 20:41 47.61453 10.31832 21858 ft 393 kts 192°
2026-04-26 20:41 47.58706 10.31199 22538 ft 397 kts 192°
2026-04-26 20:41 47.55978 10.30802 23161 ft 406 kts 180°
2026-04-26 20:41 47.53151 10.31747 23760 ft 418 kts 159°
2026-04-26 20:42 47.50647 10.33985 24274 ft 426 kts 144°
2026-04-26 20:42 47.48397 10.36875 24799 ft 431 kts 138°
2026-04-26 20:42 47.46205 10.39951 25325 ft 434 kts 138°
2026-04-26 20:42 47.44010 10.42940 25832 ft 437 kts 140°
2026-04-26 20:43 47.41697 10.45877 26360 ft 439 kts 142°
2026-04-26 20:43 47.39232 10.48613 26907 ft 439 kts 148°
2026-04-26 20:43 47.36659 10.50961 27384 ft 441 kts 152°
2026-04-26 20:43 47.33917 10.53179 27844 ft 443 kts 154°
2026-04-26 20:44 47.31213 10.55247 28278 ft 446 kts 155°
2026-04-26 20:44 47.28440 10.57340 28693 ft 450 kts 155°
2026-04-26 20:44 47.25638 10.59471 29155 ft 454 kts 155°
2026-04-26 20:44 47.22841 10.61625 29630 ft 457 kts 154°
2026-04-26 20:45 47.20014 10.63827 30045 ft 460 kts 154°
2026-04-26 20:45 47.17167 10.65992 30417 ft 462 kts 157°
2026-04-26 20:45 47.14221 10.67901 30792 ft 463 kts 160°
2026-04-26 20:45 47.11230 10.69612 31172 ft 464 kts 162°
2026-04-26 20:46 47.08204 10.71235 31548 ft 464 kts 162°
2026-04-26 20:46 47.05165 10.72831 32067 ft 462 kts 163°
2026-04-26 20:46 47.02152 10.74422 32667 ft 457 kts 163°
2026-04-26 20:46 46.99169 10.76042 33226 ft 455 kts 162°
2026-04-26 20:47 46.96217 10.77680 33622 ft 455 kts 162°
2026-04-26 20:47 46.95215 10.78241 33738 ft 455 kts 162°
2026-04-26 20:47 46.90295 10.81015 34314 ft 456 kts 162°
2026-04-26 20:47 46.87343 10.82685 34650 ft 455 kts 162°
2026-04-26 20:48 46.84385 10.84355 34973 ft 455 kts 162°
2026-04-26 20:48 46.81456 10.86005 35325 ft 454 kts 162°
2026-04-26 20:48 46.78498 10.87679 35645 ft 453 kts 160°
2026-04-26 20:48 46.75758 10.89948 35903 ft 458 kts 145°
2026-04-26 20:49 46.73313 10.92949 36174 ft 460 kts 138°
2026-04-26 20:49 46.71046 10.96254 36453 ft 461 kts 135°
2026-04-26 20:49 46.69592 10.98501 36639 ft 461 kts 134°
2026-04-26 20:49 46.67400 11.01920 36967 ft 461 kts 135°
2026-04-26 20:50 46.65171 11.05340 37366 ft 459 kts 135°
2026-04-26 20:50 46.62972 11.08628 37690 ft 457 kts 136°
2026-04-26 20:50 46.60731 11.11901 38007 ft 457 kts 137°
2026-04-26 20:50 46.58474 11.15141 38312 ft 457 kts 137°
2026-04-26 20:51 46.56208 11.18362 38583 ft 456 kts 137°
2026-04-26 20:51 46.53931 11.21581 38816 ft 456 kts 137°
2026-04-26 20:51 46.51645 11.24807 39001 ft 457 kts 137°
2026-04-26 20:52 46.47077 11.31223 39073 ft 459 kts 139°
2026-04-26 20:52 46.42147 11.37038 39074 ft 456 kts 145°
2026-04-26 20:53 46.36993 11.42418 39137 ft 456 kts 146°
2026-04-26 20:53 46.31824 11.47767 39144 ft 456 kts 146°
2026-04-26 20:54 46.26701 11.53142 39146 ft 456 kts 146°
2026-04-26 20:54 46.21606 11.58524 39144 ft 456 kts 146°
2026-04-26 20:55 46.16328 11.63661 39149 ft 454 kts 153°
2026-04-26 20:55 46.10733 11.67857 39137 ft 453 kts 156°
2026-04-26 20:56 46.05091 11.71804 39138 ft 453 kts 156°
2026-04-26 20:56 45.99438 11.75816 39134 ft 453 kts 156°
2026-04-26 20:57 45.93798 11.79886 39125 ft 453 kts 155°
2026-04-26 20:57 45.88183 11.83958 39127 ft 453 kts 155°
2026-04-26 20:58 45.82570 11.88020 39122 ft 453 kts 155°
2026-04-26 20:58 45.76936 11.92084 39110 ft 453 kts 155°
2026-04-26 20:59 45.71305 11.96136 39108 ft 453 kts 156°
2026-04-26 20:59 45.65689 12.00166 39102 ft 452 kts 156°
2026-04-26 21:00 45.60051 12.04204 39100 ft 452 kts 156°
2026-04-26 21:00 45.54420 12.08228 39103 ft 453 kts 156°
2026-04-26 21:01 45.48797 12.12237 39104 ft 452 kts 156°
2026-04-26 21:01 45.43182 12.16231 39101 ft 452 kts 156°
2026-04-26 21:02 45.37550 12.20228 39102 ft 452 kts 156°
2026-04-26 21:02 45.31931 12.24208 39102 ft 452 kts 156°
2026-04-26 21:03 45.26305 12.28183 39103 ft 451 kts 156°
2026-04-26 21:03 45.20683 12.32146 39102 ft 451 kts 156°
2026-04-26 21:04 45.15098 12.36075 39102 ft 451 kts 156°
2026-04-26 21:04 45.09479 12.40020 39093 ft 450 kts 156°
2026-04-26 21:05 45.03850 12.43962 39102 ft 449 kts 156°
2026-04-26 21:05 44.98287 12.47850 39111 ft 449 kts 156°
2026-04-26 21:06 44.92694 12.51750 39109 ft 449 kts 156°
2026-04-26 21:06 44.87099 12.55642 39102 ft 448 kts 156°
2026-04-26 21:07 44.81509 12.59523 39109 ft 448 kts 156°
2026-04-26 21:07 44.75916 12.63398 39111 ft 448 kts 156°
2026-04-26 21:08 44.70325 12.67263 39116 ft 448 kts 156°
2026-04-26 21:08 44.64730 12.71122 39112 ft 447 kts 156°
2026-04-26 21:09 44.59150 12.74963 39111 ft 447 kts 156°
2026-04-26 21:09 44.53555 12.78805 39119 ft 447 kts 156°
2026-04-26 21:10 44.47958 12.82641 39120 ft 447 kts 156°
2026-04-26 21:10 44.42361 12.86469 39117 ft 447 kts 157°
2026-04-26 21:11 44.36769 12.90285 39120 ft 447 kts 157°
2026-04-26 21:11 44.31187 12.94086 39123 ft 447 kts 157°
2026-04-26 21:12 44.25599 12.97882 39124 ft 447 kts 157°
2026-04-26 21:12 44.20022 13.01664 39119 ft 446 kts 157°
2026-04-26 21:13 44.14452 13.05433 39109 ft 446 kts 157°
2026-04-26 21:13 44.08847 13.09217 39127 ft 446 kts 157°
2026-04-26 21:14 44.03657 13.12714 39132 ft 446 kts 157°